SCP
0 0 0 0 0 0 0 -0 0 0 0 0 0 0 0 -0 -0 0 0 0 0 0 -0 -0 -0 -0 -0 -0 -0 -0 -0 -0 -0 0 0 0 0 0 0 0 0 0 0 0 0 0 0 0 0
0 0 0 0 0 0 0 -0 0 0 0 0 0 0 0 -0 0 0 -0 0 0 0 -0 -0 0 -0 0 -0 0 -0 -0 -0 0 -0 -0 0 -0 0 -0 -0 -0 0 0 0 0 0 0 0 0
0 0 0 0 0 0 0 0 0 0 0 0 0 0 0 0 0 -0 0 -0 0 0 -0 0 0 -0 -0 -0 -0 -0 -0 -0 -0 -0 -0 -0 -0 -0 -0 -0 -0 -0 0 0 0 0 0 0 0
0 0 0 0 0 0 0 0 0 0 0 0 0 0 0 0 0 -0 -0 -0 -0 -0 -0 -0 -0 -0 -0 -0 -0 -0 -0 -0 0 -0 -0 -0 -0 -0 -0 -0 -0 -0 -0 -0 0 0 0 0 0
0 0 0 0 0 0 0 0 0 0 0 0 0 0 0 0 0 -0 -0 -0 -0 -0 -0 0 -0 -0 -0 -0 -0 -0 -0 -0 -0 -0 -0 -0 -0 -0 -0 -0 -0 -0 -0 -0 0 0 0 0 0
0 0 0 0 0 0 0 0 0 0 0 0 0 0 0 0 0 0 -0 -0 -0 -0 0 0 -0 -0 -0 -0 -0 -0 -0 -0 -0 -0 -0 -0 -0 -0 -0 -0 -0 -0 -0 -0 0 0 0 0 0
0 0 0 0 0 0 0 0 0 0 0 0 0 0 0 0 0 0 0 0 0 0 0 0 0 -0 -0 -0 -0 -0 -0 -0 -0 -0 -0 -0 -0 -0 -0 -0 -0 -0 -0 0 0 0 0 0 0
0 0 0 0 0 0 0 0 0 0 0 0 0 0 0 0 0 0 0 0 0 0 0 0 0 0 -0 0 -0 -0 -0 -0 -0 -0 -0 -0 -0 -0 -0 -0 -0 -0 -0 0 0 0 0 0 0
0 0 0 0 0 0 0 0 0 0 0 0 0 0 0 0 0 0 0 0 0 0 0 0 0 0 0 0 0 -0 -0 -0 -0 -0 -0 -0 0 0 0 0 0 0 0 0 0 0 0 0 0
0 0 0 0 0 0 0 0 0 0 0 0 0 0 0 0 0 0 0 -0 -0 -0 0 0 0 0 0 0 0 0 0 0 0 0 0 0 0 0 0 0 0 0 0 0 0 0 0 0 0
0 0 0 0 0 0 -0 0 0 0 0 0 0 0 0 0 0 0 0 0 -0 0 0 0 0 0 0 0 0 0 0 0 0 0 0 0 0 0 0 0 0 0 0 0 0 0 0 0 0
0 0 0 0 0 0 0 -0 -0 -0 0 0 0 0 0 0 0 0 0 0 0 0 0 0 0 0 0 0 0 0 0 0 0 0 0 0 0 0 0 0 0 0 0 0 0 0 0 0 0
0 0 0 0 0 0 0 0 -0 -0 0 0 -0 0 0 0 0 0 0 0 0 0 0 0 0 0 0 0 0 0 0 0 0 0 0 0 0 0 0 0 0 0 0 0 0 0 0 0 0
0 0 0 0 0 0 0 0 0 -0 0 0 0 0 0 0 0 0 0 0 0 0 0 0 0 0 0 0 0 0 0 0 0 0 0 0 0 0 0 0 0 0 0 0 0 0 0 0 0
0 0 0 0 0 0 0 0 0 0 0 0 0 0 0 0 0 0 0 0 0 0 0 0 0 0 0 0 0 0 0 0 0 0 0 0 0 0 0 0 0 0 0 0 0 0 0 0 0
0 0 0 0 0 0 0 -0 0 0 0 0 0 0 0 0 0 0 0 0 0 0 0 0 0 0 0 0 0 0 0 0 0 0 0 0 0 0 0 0 0 0 0 0 0 0 0 0 0
0 0 0 0 0 0 0 0 0 0 0 0 0 0 0 0 0 0 0 0 0 0 0 0 0 0 0 0 0 0 0 0 0 0 0 0 0 0 0 0 0 0 0 0 0 0 0 0 0
0 0 0 0 0 0 0 0 0 0 0 0 0 0 0 0 0 0 0 0 0 0 0 0 0 0 0 0 0 0 0 0 0 0 0 0 0 0 0 0 0 0 0 0 0 0 0 0 0
0 0 0 0 0 0 0 -0 -0 0 0 0 0 0 0 0 0 0 0 0 0 0 0 0 0 0 0 0 0 0 0 0 0 0 0 0 0 0 0 0 0 0 0 0 0 0 0 0 0
0 0 0 0 0 0 0 -0 0 0 0 0 0 -0 0 0 0 0 0 0 0 0 0 0 0 0 0 0 0 0 0 0 0 0 0 0 0 0 0 0 0 0 0 0 0 0 0 0 0
0 0 0 0 0 0 -0 -0 -0 0 0 0 0 0 0 0 0 0 0 0 0 0 0 0 0 0 0 0 0 0 0 0 0 0 0 0 0 0 0 0 0 0 0 0 0 0 0 0 0
0 0 0 0 0 0 -0 -0 -0 -0 0 0 0 0 0 0 0 0 0 0 0 0 0 0 0 0 0 0 0 0 0 0 0 0 0 0 0 0 0 0 0 0 0 0 0 0 0 0 0
0 0 0 0 0 0 0 -0 -0 -0 0 0 0 0 0 0 0 0 0 0 0 0 0 0 0 0 0 0 0 0 0 0 0 0 0 0 0 0 0 0 0 0 0 0 0 0 0 0 0
0 0 0 0 0 0 0 0 -0 -0 0 0 0 0 0 0 0 0 0 0 0 0 0 0 0 0 0 0 0 0 0 0 0 0 0 0 0 0 0 0 0 0 0 0 0 0 0 0 0
0 0 0 0 0 0 -0 0 -0 0 0 0 0 0 0 0 0 0 0 0 0 0 0 0 0 0 0 0 0 0 0 0 0 0 0 0 0 0 0 0 0 0 0 0 0 0 0 0 0
0 0 0 0 0 0 0 0 -0 -0 0 0 0 0 0 0 0 0 0 0 0 0 0 0 0 0 0 0 0 0 0 0 0 0 0 0 0 0 0 0 0 0 0 0 0 0 0 0 0
0 0 0 0 0 0 0 0 -0 -0 0 0 0 -0 0 0 0 0 0 0 0 0 0 0 0 0 0 0 0 0 0 0 0 0 0 0 0 0 0 0 0 0 0 0 0 0 0 0 0
0 0 0 0 0 0 -0 -0 -0 0 0 0 0 0 0 0 0 0 0 0 0 0 0 0 0 0 0 0 0 0 0 0 0 0 0 0 0 0 0 0 0 0 0 0 0 0 0 0 0
0 0 0 0 0 0 -0 -0 -0 -0 0 -0 0 0 0 0 0 0 0 0 0 0 0 0 0 0 0 0 0 0 0 0 0 0 0 0 0 0 0 0 0 0 0 0 0 0 0 0 0
0 0 0 0 0 0 0 -0 0 0 0 -0 0 0 0 0 0 0 0 0 0 0 0 0 0 0 0 0 0 0 0 0 0 0 0 0 0 0 0 0 0 0 0 0 0 0 0 0 0
Wind_Speed_500mb
27 26 26 12 8 10 4 2 2 6 3 3 19 8 13 7 9 7 13 29 28 25 25 30 32 27 23 20 17 14 13 11 13 17 20 21 24 25 26 28 29 35 33 31 32 37 37 36 38
25 25 14 6 8 6 8 6 8 7 15 31 23 16 5 5 7 5 33 30 28 25 27 35 35 29 26 23 19 12 12 12 16 19 21 23 25 24 24 26 25 31 31 29 32 33 34 35 36
23 21 8 8 7 2 6 6 8 10 33 5 8 4 5 5 12 20 24 29 30 27 29 36 38 33 28 26 22 15 11 12 16 23 13 21 21 21 21 23 24 30 28 27 30 31 32 30 30
21 8 8 7 4 7 7 3 7 19 9 9 12 6 4 10 8 31 31 30 31 30 30 35 39 37 31 27 25 18 12 12 17 24 17 16 17 18 19 21 23 27 26 24 26 28 29 27 26
15 6 6 4 3 6 7 5 20 6 5 10 10 7 4 11 18 34 34 32 30 32 31 34 38 35 34 30 26 20 14 15 19 24 20 15 16 16 18 19 21 24 23 22 23 25 25 26 26
11 7 6 3 7 7 9 10 10 6 9 11 6 12 7 18 23 30 32 30 30 29 33 33 38 38 34 29 25 20 16 17 19 21 19 16 15 15 18 19 20 21 22 20 20 20 21 21 21
11 7 3 3 7 8 5 11 8 11 10 11 10 12 8 28 28 28 30 30 31 31 31 33 36 40 35 30 25 21 18 19 20 19 18 17 14 15 17 18 19 19 20 18 16 16 16 16 16
13 5 8 3 5 9 8 5 8 18 14 9 19 10 9 38 37 35 35 33 35 36 34 33 35 38 37 33 28 23 22 21 20 18 17 18 15 15 17 18 19 19 17 16 14 13 12 11 11
16 6 6 7 1 10 26 14 10 9 11 21 24 16 13 31 44 44 47 44 43 44 40 38 36 36 37 33 30 27 25 24 23 21 19 18 17 17 18 18 17 17 17 14 13 10 8 6 7
17 8 11 5 11 10 34 17 29 8 12 20 25 32 24 25 50 54 59 59 56 53 50 43 40 36 36 35 33 30 30 27 25 23 21 20 19 19 18 17 17 16 15 15 15 11 6 3 2
10 14 21 21 36 29 18 31 22 12 9 29 42 48 39 35 54 57 60 61 58 55 54 50 45 40 39 38 36 34 32 29 27 25 23 22 22 20 19 18 17 16 15 14 13 11 9 8 6
4 16 33 20 34 32 21 28 22 28 44 32 52 51 47 48 57 60 62 63 62 57 55 54 50 46 44 41 39 36 34 32 29 26 25 24 23 21 20 18 17 16 15 15 14 13 12 12 11
2 10 33 44 34 40 38 30 22 46 55 49 43 46 53 54 57 58 59 61 62 62 59 58 56 52 49 47 44 40 37 35 30 28 26 26 25 22 21 20 19 18 17 17 16 15 14 14 15
9 19 17 23 36 25 17 33 14 31 45 38 44 45 50 58 61 61 67 65 66 64 63 61 61 57 54 53 50 46 42 37 35 33 30 28 25 24 22 21 21 21 20 20 19 18 17 17 17
4 9 8 20 14 12 19 20 12 52 47 55 47 46 51 58 64 70 62 67 62 64 66 66 64 62 61 57 54 52 47 43 41 38 34 32 30 27 26 23 23 20 22 24 23 21 20 20 19
1 1 10 10 26 16 18 28 11 35 41 50 52 53 57 61 67 69 65 69 66 64 69 67 66 67 64 63 59 57 53 51 48 44 41 38 36 33 31 29 27 24 26 28 25 24 23 22 20
9 13 12 10 31 8 14 4 17 36 31 48 59 62 60 63 68 70 72 72 68 66 66 69 71 72 69 66 64 62 59 57 54 51 48 45 42 41 38 35 31 30 32 32 29 28 27 24 21
17 12 7 9 9 9 11 18 24 51 54 51 58 58 63 67 73 70 72 74 72 70 70 71 72 73 71 68 68 67 66 64 60 57 56 52 51 47 46 42 38 38 39 38 36 34 32 29 26
24 16 23 6 12 7 21 28 33 41 41 50 55 66 70 68 82 74 76 76 80 78 80 77 76 78 74 77 78 76 77 72 68 66 62 59 58 55 53 49 46 46 47 43 40 39 37 35 31
31 12 14 5 8 10 20 31 31 34 36 56 61 58 74 86 77 81 80 79 83 82 83 84 83 82 80 81 80 80 78 78 74 71 69 66 65 63 59 55 52 50 52 51 49 47 45 42 37
42 40 18 15 3 10 18 41 26 31 55 68 72 74 83 85 95 90 74 81 83 87 91 91 88 86 86 86 83 82 83 83 82 83 81 75 71 69 66 61 59 56 56 57 55 53 52 50 45
40 29 21 19 3 18 6 26 16 14 30 34 65 71 83 93 99 99 90 88 87 95 93 91 91 89 89 90 93 93 92 92 88 88 86 82 78 74 72 70 67 63 60 61 59 55 57 54 54
15 10 24 19 16 3 16 15 8 12 23 25 42 66 76 99 99 102 92 96 95 92 92 96 94 92 91 91 93 97 95 93 87 85 81 82 80 79 78 77 73 71 67 65 64 61 60 59 60
2 3 5 6 8 17 30 16 27 23 27 17 35 53 71 80 89 99 100 103 106 100 96 90 96 94 93 91 89 96 92 94 93 88 81 78 75 75 79 81 80 77 73 71 68 65 64 63 63
29 13 5 6 11 23 17 21 45 30 12 17 22 47 51 58 68 76 78 87 91 98 99 95 90 93 92 93 90 90 90 92 90 84 78 74 74 77 76 74 79 80 76 74 71 70 72 69 68
34 27 8 10 13 8 4 24 13 23 38 53 62 62 55 59 59 50 48 68 70 86 98 99 98 95 93 92 94 91 88 87 87 84 76 73 74 72 68 70 71 70 72 72 73 75 75 75 75
10 26 10 7 4 0 9 17 15 25 22 31 52 51 72 71 62 63 57 49 59 67 79 95 94 93 93 88 86 92 91 86 83 79 76 73 71 70 68 67 66 64 64 65 67 73 75 76 76
14 18 7 6 6 9 14 13 23 24 23 20 31 40 46 57 61 55 60 47 38 53 57 69 88 91 87 85 85 85 88 86 80 78 77 73 70 67 66 65 63 59 59 60 64 67 67 72 73
13 11 9 6 5 8 14 16 15 29 28 18 17 38 31 45 44 56 55 62 52 38 50 57 68 84 87 87 84 81 84 86 82 80 75 70 68 69 66 62 59 57 57 60 63 63 62 62 64
33 28 26 12 19 7 6 42 4 18 13 14 36 50 37 38 40 34 38 45 59 52 43 48 59 67 73 75 77 77 78 81 82 79 74 69 66 65 65 62 60 59 59 59 60 59 60 64 67
Wind_Direction_500mb
329 338 338 351 43 64 328 308 112 127 168 188 147 164 176 134 160 206 164 156 167 176 162 158 164 163 159 150 142 136 127 113 98 103 112 112 106 100 97 94 100 101 102 96 96 93 87 84 81
333 343 333 54 74 48 281 267 189 192 131 117 110 110 133 155 175 180 156 160 163 166 167 163 166 166 165 161 154 156 131 112 116 117 113 105 105 102 100 102 105 108 110 101 98 90 86 83 84
338 339 334 86 100 165 247 240 172 136 140 118 120 141 175 171 176 166 168 163 162 167 170 168 168 173 174 169 167 167 155 128 119 120 115 113 112 106 108 110 110 111 115 105 99 91 87 83 84
353 333 41 80 148 251 215 290 155 137 219 183 159 106 179 186 183 171 170 168 164 167 173 173 175 176 180 178 180 186 177 151 129 135 145 123 121 117 112 114 118 121 119 111 104 94 90 87 90
6 10 36 42 253 271 275 180 164 163 157 163 162 206 231 193 175 173 172 169 171 169 173 178 180 179 183 188 192 194 188 180 159 149 154 135 128 129 119 119 123 126 125 121 109 103 96 91 89
32 32 40 302 272 293 303 171 171 215 171 176 173 159 187 176 169 173 176 173 174 179 177 182 185 187 187 190 195 192 193 188 166 162 161 150 137 134 125 126 127 131 134 130 118 110 99 94 87
72 21 232 287 293 334 290 199 212 195 200 225 183 148 220 186 170 179 179 180 182 185 191 188 192 193 195 197 200 200 197 185 170 171 170 162 151 142 139 133 136 139 141 138 129 118 107 98 89
89 44 324 268 291 281 4 268 294 211 222 230 187 213 229 190 180 182 184 189 191 194 198 196 194 195 199 200 202 202 194 188 176 175 175 173 163 151 153 147 145 147 149 151 146 135 119 106 96
98 59 322 303 260 281 5 356 318 276 230 192 201 239 242 195 189 187 190 193 197 200 202 202 199 198 201 202 202 198 195 190 185 184 183 180 173 167 161 158 152 155 161 160 162 156 138 123 102
129 146 206 308 340 320 315 323 319 285 245 230 221 226 235 206 199 197 199 199 201 201 202 205 203 202 202 203 202 198 197 195 193 192 190 189 187 180 173 169 168 169 171 176 176 177 185 183 151
210 175 182 247 266 291 300 315 330 273 250 232 229 226 225 212 207 209 212 211 211 205 204 207 206 206 207 206 204 201 199 199 199 198 198 198 200 195 187 186 186 184 186 190 190 194 209 233 232
227 224 185 218 244 265 280 313 304 263 263 272 256 244 227 215 213 218 221 219 215 214 212 210 210 210 212 211 212 209 205 205 207 205 206 207 208 206 201 200 198 201 202 209 213 220 231 243 254
281 235 222 227 223 246 265 269 272 287 296 279 274 241 231 227 227 226 229 226 222 219 218 216 215 214 215 216 217 217 215 216 215 215 213 210 209 210 211 211 213 214 217 222 227 234 242 250 258
251 246 266 227 222 206 232 262 309 275 285 293 250 241 234 233 234 228 227 228 226 224 223 222 220 220 220 221 223 221 221 221 221 221 222 219 215 216 220 224 221 224 227 231 236 239 243 249 257
265 290 258 240 256 226 195 254 214 262 288 276 264 248 237 237 230 232 239 234 231 228 227 226 225 225 225 226 228 227 225 227 226 227 225 225 223 224 224 228 229 229 234 238 241 247 251 256 262
211 93 247 219 189 234 172 252 256 245 278 282 264 250 242 238 239 235 238 239 238 232 231 229 229 229 230 229 230 231 230 230 232 231 232 230 228 229 229 230 231 230 236 242 245 250 253 257 265
211 235 226 313 194 143 204 231 221 253 275 270 268 259 250 245 239 239 237 240 241 239 235 232 231 231 232 232 233 234 234 234 235 234 235 235 235 235 235 235 235 236 240 245 247 250 254 257 263
207 226 226 227 219 228 244 255 255 250 259 269 272 273 264 252 247 244 242 241 243 241 239 237 234 235 233 234 235 235 236 235 235 235 236 236 238 238 240 240 239 239 243 245 248 251 254 255 254
265 214 232 181 207 175 247 250 257 249 248 252 259 263 262 261 255 252 246 243 244 243 241 239 236 234 233 233 233 235 236 235 235 236 236 236 238 239 240 241 241 242 246 250 252 252 253 252 250
262 248 233 286 185 208 267 262 250 249 246 239 250 253 260 260 262 253 250 249 245 245 245 242 240 237 236 236 237 237 239 239 240 241 240 239 238 239 240 243 244 245 249 250 250 251 252 251 244
234 251 247 249 305 235 289 280 245 252 246 245 248 247 252 253 258 258 253 250 249 246 243 243 243 240 239 239 238 239 241 243 242 240 240 239 240 242 243 244 246 245 248 251 253 253 253 254 249
240 226 249 246 180 271 152 286 250 265 242 222 239 236 238 244 250 255 252 251 250 248 247 245 245 243 242 239 240 239 240 240 241 242 242 242 241 243 245 247 248 248 248 251 253 253 253 253 250
227 192 206 202 201 300 245 275 265 206 256 241 242 238 233 242 243 249 251 247 248 251 249 245 244 244 244 242 241 242 242 246 249 250 249 248 246 246 248 247 249 250 250 251 252 251 251 252 252
177 229 162 194 201 245 240 227 264 237 240 235 241 239 235 237 242 247 251 250 252 249 249 246 243 243 244 243 242 242 244 245 246 248 250 251 250 249 248 248 249 250 252 251 253 254 253 252 252
193 177 228 177 193 236 184 208 245 289 266 234 236 250 248 252 252 250 251 253 249 243 243 244 243 243 243 242 241 242 244 244 247 250 251 252 252 249 247 246 246 249 250 252 253 254 253 252 252
213 213 219 229 206 258 125 234 237 237 267 255 259 257 256 256 257 252 256 253 252 244 242 241 240 242 242 243 241 240 244 246 247 249 251 252 253 254 253 250 250 252 253 255 256 257 258 255 253
163 212 184 141 28 188 232 284 277 252 260 262 262 257 256 258 257 251 250 257 250 246 243 240 238 239 242 242 241 240 241 243 246 248 250 252 253 254 255 254 254 253 253 256 258 258 259 259 257
215 143 169 180 218 248 243 251 245 309 290 247 252 256 261 273 268 265 244 246 253 246 243 238 237 238 240 242 243 243 242 243 245 248 250 252 254 255 255 255 254 253 254 255 255 257 258 259 259
156 198 209 146 200 224 277 263 209 224 256 279 287 281 291 285 281 271 261 239 245 251 240 235 232 234 236 239 241 243 242 243 245 248 252 254 255 257 258 259 256 254 253 255 257 260 263 265 265
217 213 197 218 222 260 286 263 187 231 275 318 294 299 315 298 289 284 256 245 240 237 241 238 233 234 236 241 243 243 244 245 247 249 251 254 258 259 260 259 257 255 254 255 258 262 266 264 266
Wind_Speed_850mb
27 26 26 12 8 10 4 2 2 6 3 3 19 8 13 7 9 7 13 29 28 25 25 30 32 27 23 20 17 14 13 11 13 17 20 21 24 25 26 28 29 35 33 31 32 37 37 36 38
25 25 14 6 8 6 8 6 8 7 15 31 23 16 5 5 7 5 33 30 28 25 27 35 35 29 26 23 19 12 12 12 16 19 21 23 25 24 24 26 25 31 31 29 32 33 34 35 36
23 21 8 8 7 2 6 6 8 10 33 5 8 4 5 5 12 20 24 29 30 27 29 36 38 33 28 26 22 15 11 12 16 23 13 21 21 21 21 23 24 30 28 27 30 31 32 30 30
21 8 8 7 4 7 7 3 7 19 9 9 12 6 4 10 8 31 31 30 31 30 30 35 39 37 31 27 25 18 12 12 17 24 17 16 17 18 19 21 23 27 26 24 26 28 29 27 26
15 6 6 4 3 6 7 5 20 6 5 10 10 7 4 11 18 34 34 32 30 32 31 34 38 35 34 30 26 20 14 15 19 24 20 15 16 16 18 19 21 24 23 22 23 25 25 26 26
11 7 6 3 7 7 9 10 10 6 9 11 6 12 7 18 23 30 32 30 30 29 33 33 38 38 34 29 25 20 16 17 19 21 19 16 15 15 18 19 20 21 22 20 20 20 21 21 21
11 7 3 3 7 8 5 11 8 11 10 11 10 12 8 28 28 28 30 30 31 31 31 33 36 40 35 30 25 21 18 19 20 19 18 17 14 15 17 18 19 19 20 18 16 16 16 16 16
13 5 8 3 5 9 8 5 8 18 14 9 19 10 9 38 37 35 35 33 35 36 34 33 35 38 37 33 28 23 22 21 20 18 17 18 15 15 17 18 19 19 17 16 14 13 12 11 11
16 6 6 7 1 10 26 14 10 9 11 21 24 16 13 31 44 44 47 44 43 44 40 38 36 36 37 33 30 27 25 24 23 21 19 18 17 17 18 18 17 17 17 14 13 10 8 6 7
17 8 11 5 11 10 34 17 29 8 12 20 25 32 24 25 50 54 59 59 56 53 50 43 40 36 36 35 33 30 30 27 25 23 21 20 19 19 18 17 17 16 15 15 15 11 6 3 2
10 14 21 21 36 29 18 31 22 12 9 29 42 48 39 35 54 57 60 61 58 55 54 50 45 40 39 38 36 34 32 29 27 25 23 22 22 20 19 18 17 16 15 14 13 11 9 8 6
4 16 33 20 34 32 21 28 22 28 44 32 52 51 47 48 57 60 62 63 62 57 55 54 50 46 44 41 39 36 34 32 29 26 25 24 23 21 20 18 17 16 15 15 14 13 12 12 11
2 10 33 44 34 40 38 30 22 46 55 49 43 46 53 54 57 58 59 61 62 62 59 58 56 52 49 47 44 40 37 35 30 28 26 26 25 22 21 20 19 18 17 17 16 15 14 14 15
9 19 17 23 36 25 17 33 14 31 45 38 44 45 50 58 61 61 67 65 66 64 63 61 61 57 54 53 50 46 42 37 35 33 30 28 25 24 22 21 21 21 20 20 19 18 17 17 17
4 9 8 20 14 12 19 20 12 52 47 55 47 46 51 58 64 70 62 67 62 64 66 66 64 62 61 57 54 52 47 43 41 38 34 32 30 27 26 23 23 20 22 24 23 21 20 20 19
1 1 10 10 26 16 18 28 11 35 41 50 52 53 57 61 67 69 65 69 66 64 69 67 66 67 64 63 59 57 53 51 48 44 41 38 36 33 31 29 27 24 26 28 25 24 23 22 20
9 13 12 10 31 8 14 4 17 36 31 48 59 62 60 63 68 70 72 72 68 66 66 69 71 72 69 66 64 62 59 57 54 51 48 45 42 41 38 35 31 30 32 32 29 28 27 24 21
17 12 7 9 9 9 11 18 24 51 54 51 58 58 63 67 73 70 72 74 72 70 70 71 72 73 71 68 68 67 66 64 60 57 56 52 51 47 46 42 38 38 39 38 36 34 32 29 26
24 16 23 6 12 7 21 28 33 41 41 50 55 66 70 68 82 74 76 76 80 78 80 77 76 78 74 77 78 76 77 72 68 66 62 59 58 55 53 49 46 46 47 43 40 39 37 35 31
31 12 14 5 8 10 20 31 31 34 36 56 61 58 74 86 77 81 80 79 83 82 83 84 83 82 80 81 80 80 78 78 74 71 69 66 65 63 59 55 52 50 52 51 49 47 45 42 37
42 40 18 15 3 10 18 41 26 31 55 68 72 74 83 85 95 90 74 81 83 87 91 91 88 86 86 86 83 82 83 83 82 83 81 75 71 69 66 61 59 56 56 57 55 53 52 50 45
40 29 21 19 3 18 6 26 16 14 30 34 65 71 83 93 99 99 90 88 87 95 93 91 91 89 89 90 93 93 92 92 88 88 86 82 78 74 72 70 67 63 60 61 59 55 57 54 54
15 10 24 19 16 3 16 15 8 12 23 25 42 66 76 99 99 102 92 96 95 92 92 96 94 92 91 91 93 97 95 93 87 85 81 82 80 79 78 77 73 71 67 65 64 61 60 59 60
2 3 5 6 8 17 30 16 27 23 27 17 35 53 71 80 89 99 100 103 106 100 96 90 96 94 93 91 89 96 92 94 93 88 81 78 75 75 79 81 80 77 73 71 68 65 64 63 63
29 13 5 6 11 23 17 21 45 30 12 17 22 47 51 58 68 76 78 87 91 98 99 95 90 93 92 93 90 90 90 92 90 84 78 74 74 77 76 74 79 80 76 74 71 70 72 69 68
34 27 8 10 13 8 4 24 13 23 38 53 62 62 55 59 59 50 48 68 70 86 98 99 98 95 93 92 94 91 88 87 87 84 76 73 74 72 68 70 71 70 72 72 73 75 75 75 75
10 26 10 7 4 0 9 17 15 25 22 31 52 51 72 71 62 63 57 49 59 67 79 95 94 93 93 88 86 92 91 86 83 79 76 73 71 70 68 67 66 64 64 65 67 73 75 76 76
14 18 7 6 6 9 14 13 23 24 23 20 31 40 46 57 61 55 60 47 38 53 57 69 88 91 87 85 85 85 88 86 80 78 77 73 70 67 66 65 63 59 59 60 64 67 67 72 73
13 11 9 6 5 8 14 16 15 29 28 18 17 38 31 45 44 56 55 62 52 38 50 57 68 84 87 87 84 81 84 86 82 80 75 70 68 69 66 62 59 57 57 60 63 63 62 62 64
33 28 26 12 19 7 6 42 4 18 13 14 36 50 37 38 40 34 38 45 59 52 43 48 59 67 73 75 77 77 78 81 82 79 74 69 66 65 65 62 60 59 59 59 60 59 60 64 67
Wind_Direction_850mb
329 338 338 351 43 64 328 308 112 127 168 188 147 164 176 134 160 206 164 156 167 176 162 158 164 163 159 150 142 136 127 113 98 103 112 112 106 100 97 94 100 101 102 96 96 93 87 84 81
333 343 333 54 74 48 281 267 189 192 131 117 110 110 133 155 175 180 156 160 163 166 167 163 166 166 165 161 154 156 131 112 116 117 113 105 105 102 100 102 105 108 110 101 98 90 86 83 84
338 339 334 86 100 165 247 240 172 136 140 118 120 141 175 171 176 166 168 163 162 167 170 168 168 173 174 169 167 167 155 128 119 120 115 113 112 106 108 110 110 111 115 105 99 91 87 83 84
353 333 41 80 148 251 215 290 155 137 219 183 159 106 179 186 183 171 170 168 164 167 173 173 175 176 180 178 180 186 177 151 129 135 145 123 121 117 112 114 118 121 119 111 104 94 90 87 90
6 10 36 42 253 271 275 180 164 163 157 163 162 206 231 193 175 173 172 169 171 169 173 178 180 179 183 188 192 194 188 180 159 149 154 135 128 129 119 119 123 126 125 121 109 103 96 91 89
32 32 40 302 272 293 303 171 171 215 171 176 173 159 187 176 169 173 176 173 174 179 177 182 185 187 187 190 195 192 193 188 166 162 161 150 137 134 125 126 127 131 134 130 118 110 99 94 87
72 21 232 287 293 334 290 199 212 195 200 225 183 148 220 186 170 179 179 180 182 185 191 188 192 193 195 197 200 200 197 185 170 171 170 162 151 142 139 133 136 139 141 138 129 118 107 98 89
89 44 324 268 291 281 4 268 294 211 222 230 187 213 229 190 180 182 184 189 191 194 198 196 194 195 199 200 202 202 194 188 176 175 175 173 163 151 153 147 145 147 149 151 146 135 119 106 96
98 59 322 303 260 281 5 356 318 276 230 192 201 239 242 195 189 187 190 193 197 200 202 202 199 198 201 202 202 198 195 190 185 184 183 180 173 167 161 158 152 155 161 160 162 156 138 123 102
129 146 206 308 340 320 315 323 319 285 245 230 221 226 235 206 199 197 199 199 201 201 202 205 203 202 202 203 202 198 197 195 193 192 190 189 187 180 173 169 168 169 171 176 176 177 185 183 151
210 175 182 247 266 291 300 315 330 273 250 232 229 226 225 212 207 209 212 211 211 205 204 207 206 206 207 206 204 201 199 199 199 198 198 198 200 195 187 186 186 184 186 190 190 194 209 233 232
227 224 185 218 244 265 280 313 304 263 263 272 256 244 227 215 213 218 221 219 215 214 212 210 210 210 212 211 212 209 205 205 207 205 206 207 208 206 201 200 198 201 202 209 213 220 231 243 254
281 235 222 227 223 246 265 269 272 287 296 279 274 241 231 227 227 226 229 226 222 219 218 216 215 214 215 216 217 217 215 216 215 215 213 210 209 210 211 211 213 214 217 222 227 234 242 250 258
251 246 266 227 222 206 232 262 309 275 285 293 250 241 234 233 234 228 227 228 226 224 223 222 220 220 220 221 223 221 221 221 221 221 222 219 215 216 220 224 221 224 227 231 236 239 243 249 257
265 290 258 240 256 226 195 254 214 262 288 276 264 248 237 237 230 232 239 234 231 228 227 226 225 225 225 226 228 227 225 227 226 227 225 225 223 224 224 228 229 229 234 238 241 247 251 256 262
211 93 247 219 189 234 172 252 256 245 278 282 264 250 242 238 239 235 238 239 238 232 231 229 229 229 230 229 230 231 230 230 232 231 232 230 228 229 229 230 231 230 236 242 245 250 253 257 265
211 235 226 313 194 143 204 231 221 253 275 270 268 259 250 245 239 239 237 240 241 239 235 232 231 231 232 232 233 234 234 234 235 234 235 235 235 235 235 235 235 236 240 245 247 250 254 257 263
207 226 226 227 219 228 244 255 255 250 259 269 272 273 264 252 247 244 242 241 243 241 239 237 234 235 233 234 235 235 236 235 235 235 236 236 238 238 240 240 239 239 243 245 248 251 254 255 254
265 214 232 181 207 175 247 250 257 249 248 252 259 263 262 261 255 252 246 243 244 243 241 239 236 234 233 233 233 235 236 235 235 236 236 236 238 239 240 241 241 242 246 250 252 252 253 252 250
262 248 233 286 185 208 267 262 250 249 246 239 250 253 260 260 262 253 250 249 245 245 245 242 240 237 236 236 237 237 239 239 240 241 240 239 238 239 240 243 244 245 249 250 250 251 252 251 244
234 251 247 249 305 235 289 280 245 252 246 245 248 247 252 253 258 258 253 250 249 246 243 243 243 240 239 239 238 239 241 243 242 240 240 239 240 242 243 244 246 245 248 251 253 253 253 254 249
240 226 249 246 180 271 152 286 250 265 242 222 239 236 238 244 250 255 252 251 250 248 247 245 245 243 242 239 240 239 240 240 241 242 242 242 241 243 245 247 248 248 248 251 253 253 253 253 250
227 192 206 202 201 300 245 275 265 206 256 241 242 238 233 242 243 249 251 247 248 251 249 245 244 244 244 242 241 242 242 246 249 250 249 248 246 246 248 247 249 250 250 251 252 251 251 252 252
177 229 162 194 201 245 240 227 264 237 240 235 241 239 235 237 242 247 251 250 252 249 249 246 243 243 244 243 242 242 244 245 246 248 250 251 250 249 248 248 249 250 252 251 253 254 253 252 252
193 177 228 177 193 236 184 208 245 289 266 234 236 250 248 252 252 250 251 253 249 243 243 244 243 243 243 242 241 242 244 244 247 250 251 252 252 249 247 246 246 249 250 252 253 254 253 252 252
213 213 219 229 206 258 125 234 237 237 267 255 259 257 256 256 257 252 256 253 252 244 242 241 240 242 242 243 241 240 244 246 247 249 251 252 253 254 253 250 250 252 253 255 256 257 258 255 253
163 212 184 141 28 188 232 284 277 252 260 262 262 257 256 258 257 251 250 257 250 246 243 240 238 239 242 242 241 240 241 243 246 248 250 252 253 254 255 254 254 253 253 256 258 258 259 259 257
215 143 169 180 218 248 243 251 245 309 290 247 252 256 261 273 268 265 244 246 253 246 243 238 237 238 240 242 243 243 242 243 245 248 250 252 254 255 255 255 254 253 254 255 255 257 258 259 259
156 198 209 146 200 224 277 263 209 224 256 279 287 281 291 285 281 271 261 239 245 251 240 235 232 234 236 239 241 243 242 243 245 248 252 254 255 257 258 259 256 254 253 255 257 260 263 265 265
217 213 197 218 222 260 286 263 187 231 275 318 294 299 315 298 289 284 256 245 240 237 241 238 233 234 236 241 243 243 244 245 247 249 251 254 258 259 260 259 257 255 254 255 258 262 266 264 266